Tracking 23441 objects as of 15-Jun-2021
HD Live streaming from Space Station
objects crossing your sky now

CE-SAT IIB

Track CE-SAT IIB now!
10-day predictions


NORAD ID: 46818
Int'l Code: 2020-077F
Perigee: 513.0 km
Apogee: 530.8 km
Inclination: 97.5 °
Period: 94.9 minutes
Semi major axis: 6892 km
RCS: Unknown
Launch date: October 28, 2020
Source: Japan (JPN)
Launch site: Rocket Lab Launch Complex (RLLC)
aabbcc
Your satellite tracking list
Your tracking list is empty




NASA's NSSDC Master Catalog

Two Line Element Set (TLE):
1 46818U 20077F   21166.15035101  .00000514  00000-0  29325-4 0  9990
2 46818  97.4678 229.6783 0012946 225.5735 134.4440 15.17048371 34754
Source of the keplerian elements: AFSPC